Location: Prairie Dale
(45.6972°N, 104.5033°W)
Time: 06:45:19
(UTC+00:00)

Envisat - Pass Details

Date: 26 January 2022
Orbit: 764 x 765 km, 98.2° (Epoch: 16 May)

Event Time Altitude Azimuth Distance (km) Brightness Sun altitude
Rises 00:33:59 0° 221° (SW) 3,218 7.4 -7.2°
Reaches altitude 10° 00:38:07 10° 255° (WSW) 2,300 7.2 -7.9°
Maximum altitude 00:39:43 11° 274° (W) 2,205 6.6 -8.1°
Drops below altitude 10° 00:41:19 10° 292° (WNW) 2,305 6.3 -8.4°
Sets 00:45:30 0° 326° (NW) 3,239 6.5 -9.1°
